Location: Newark
(13.8117°N, 3.6025°W)
Time: 02:29:05
(UTC+00:00)

Explorer 11/Cluster Stage 4 - Pass Details

Date: 30 August 2019
Orbit: 467 x 1260 km, 28.8° (Epoch: 15 September)

Event Time Altitude Azimuth Distance (km) Brightness Sun altitude
Rises 11:53:42 0° 303° (WNW) 4,039 10.1 82.9°
Reaches altitude 10° 11:56:41 10° 310° (NW) 3,145 9.7 83.4°
Maximum altitude 12:04:11 41° 18° (NNE) 1,738 9.0 84.5°
Drops below altitude 10° 12:11:47 10° 86° (E) 3,179 9.8 85.1°
Sets 12:14:48 0° 93° (E) 4,087 10.3 85.2°
